Wetterdaten: Samstag, 12.05.2012
Datum Zeit Temp. A. Feuchte A. Regen Wind Richtung Richtung Taupunkt Windchill Windben
12.05.2012 00:27 17,2 C 63 % 0,0 l/m 1,8 km/h (1 Bft) N 360 10,1 C 16,2 C 3,7 km/h (1 Bft)
12.05.2012 01:27 17,4 C 61 % 0,0 l/m 2,4 km/h (1 Bft) N-NO 22 9,8 C 17,0 C 3,4 km/h (1 Bft)
12.05.2012 02:27 16,4 C 64 % 0,0 l/m 0,8 km/h (0 Bft) N-NO 22 9,6 C 15,5 C 3,2 km/h (1 Bft)
12.05.2012 03:27 15,9 C 69 % 0,0 l/m 1,4 km/h (1 Bft) N-NO 22 10,2 C 15,1 C 1,9 km/h (1 Bft)
12.05.2012 04:27 15,7 C 74 % 0,0 l/m 0,8 km/h (0 Bft) O-SO 112 11,1 C 14,9 C 2,1 km/h (1 Bft)
12.05.2012 05:27 16,1 C 79 % 0,0 l/m 1,3 km/h (1 Bft) N 360 12,5 C 15,4 C 0,0 km/h (0 Bft)
12.05.2012 05:56 16,1 C 81 % 0,7 l/m 3,2 km/h (1 Bft) W-NW 292 12,8 C 15,2 C 5,3 km/h (1 Bft)
12.05.2012 05:58 16,1 C 81 % 0,7 l/m 4,0 km/h (1 Bft) S-SO 157 12,8 C 14,9 C 7,1 km/h (2 Bft)
12.05.2012 06:00 16,0 C 82 % 1,4 l/m 4,8 km/h (1 Bft) O-SO 112 12,9 C 14,8 C 7,1 km/h (2 Bft)
12.05.2012 06:02 16,0 C 82 % 0,0 l/m 5,5 km/h (1 Bft) SO 135 12,9 C 14,7 C 6,1 km/h (2 Bft)
12.05.2012 06:04 16,1 C 82 % 0,0 l/m 5,1 km/h (1 Bft) O 90 13,0 C 14,5 C 6,4 km/h (2 Bft)
12.05.2012 06:06 16,0 C 82 % 0,7 l/m 4,7 km/h (1 Bft) O-SO 112 12,9 C 14,4 C 6,4 km/h (2 Bft)
12.05.2012 06:08 16,0 C 82 % 0,0 l/m 4,3 km/h (1 Bft) NO 45 12,9 C 14,4 C 3,1 km/h (1 Bft)
12.05.2012 06:10 15,9 C 83 % 0,0 l/m 3,7 km/h (1 Bft) S 180 13,0 C 14,3 C 2,9 km/h (1 Bft)
12.05.2012 06:12 15,8 C 83 % 0,0 l/m 3,5 km/h (1 Bft) N 360 12,9 C 14,2 C 2,3 km/h (1 Bft)
12.05.2012 06:14 15,8 C 83 % 0,7 l/m 3,4 km/h (1 Bft) O 90 12,9 C 14,2 C 6,0 km/h (2 Bft)
12.05.2012 06:16 15,7 C 82 % 0,0 l/m 3,7 km/h (1 Bft) N-NO 22 12,6 C 14,0 C 16,7 km/h (3 Bft)
12.05.2012 06:18 15,6 C 82 % 0,0 l/m 3,9 km/h (1 Bft) O-SO 112 12,5 C 14,0 C 6,8 km/h (2 Bft)
12.05.2012 06:20 15,6 C 82 % 0,0 l/m 4,0 km/h (1 Bft) O 90 12,5 C 13,9 C 6,8 km/h (2 Bft)
12.05.2012 06:22 15,6 C 82 % 0,7 l/m 4,8 km/h (1 Bft) SO 135 12,5 C 13,8 C 6,1 km/h (2 Bft)
12.05.2012 06:24 15,7 C 82 % 0,0 l/m 4,7 km/h (1 Bft) O-NO 67 12,6 C 13,7 C 6,1 km/h (2 Bft)
12.05.2012 06:26 15,6 C 82 % 0,0 l/m 4,7 km/h (1 Bft) O-SO 112 12,5 C 13,7 C 16,7 km/h (3 Bft)
12.05.2012 06:28 15,6 C 82 % 0,7 l/m 4,2 km/h (1 Bft) SO 135 12,5 C 13,7 C 4,5 km/h (1 Bft)
12.05.2012 06:30 15,5 C 82 % 0,0 l/m 3,9 km/h (1 Bft) SO 135 12,4 C 13,6 C 4,3 km/h (1 Bft)
12.05.2012 06:32 15,5 C 82 % 0,0 l/m 4,0 km/h (1 Bft) O-SO 112 12,4 C 13,5 C 5,5 km/h (1 Bft)
12.05.2012 06:34 15,5 C 82 % 0,7 l/m 3,7 km/h (1 Bft) O-SO 112 12,4 C 13,5 C 5,5 km/h (1 Bft)
12.05.2012 06:36 15,5 C 82 % 0,0 l/m 3,9 km/h (1 Bft) O 90 12,4 C 13,5 C 2,4 km/h (1 Bft)
12.05.2012 06:38 15,4 C 82 % 0,0 l/m 3,7 km/h (1 Bft) O-SO 112 12,3 C 13,5 C 3,7 km/h (1 Bft)
12.05.2012 06:40 15,4 C 82 % 0,0 l/m 3,5 km/h (1 Bft) SO 135 12,3 C 13,5 C 3,7 km/h (1 Bft)
12.05.2012 06:42 15,3 C 82 % 0,0 l/m 3,5 km/h (1 Bft) NO 45 12,2 C 13,5 C 2,6 km/h (1 Bft)
12.05.2012 06:44 15,3 C 82 % 0,0 l/m 2,9 km/h (1 Bft) N-NO 22 12,2 C 13,4 C 2,6 km/h (1 Bft)
12.05.2012 06:46 15,3 C 83 % 0,7 l/m 2,9 km/h (1 Bft) O-SO 112 12,4 C 13,4 C 6,1 km/h (2 Bft)
12.05.2012 06:48 15,3 C 83 % 0,0 l/m 2,4 km/h (1 Bft) N 360 12,4 C 13,4 C 6,1 km/h (2 Bft)
12.05.2012 06:50 15,2 C 83 % 0,0 l/m 2,1 km/h (1 Bft) O-NO 67 12,3 C 13,4 C 1,8 km/h (1 Bft)
12.05.2012 06:52 15,2 C 83 % 0,0 l/m 1,6 km/h (1 Bft) O-NO 67 12,3 C 13,4 C 2,6 km/h (1 Bft)
12.05.2012 06:54 15,2 C 83 % 0,0 l/m 1,4 km/h (1 Bft) W-SW 247 12,3 C 13,4 C 2,6 km/h (1 Bft)
12.05.2012 06:56 15,1 C 84 % 0,0 l/m 1,4 km/h (1 Bft) S 180 12,4 C 13,4 C 3,9 km/h (1 Bft)
12.05.2012 06:58 15,2 C 84 % 0,0 l/m 1,1 km/h (1 Bft) N 360 12,5 C 13,5 C 3,9 km/h (1 Bft)
12.05.2012 07:00 15,1 C 84 % 0,0 l/m 1,0 km/h (0 Bft) S-SO 157 12,4 C 13,5 C 0,0 km/h (0 Bft)
12.05.2012 07:02 15,3 C 84 % 0,0 l/m 1,0 km/h (0 Bft) N-NO 22 12,6 C 13,5 C 0,0 km/h (0 Bft)
12.05.2012 07:04 15,2 C 84 % 0,0 l/m 0,8 km/h (0 Bft) NO 45 12,5 C 13,5 C 1,6 km/h (1 Bft)
12.05.2012 07:06 15,2 C 84 % 0,0 l/m 0,8 km/h (0 Bft) N-NO 22 12,5 C 13,5 C 1,9 km/h (1 Bft)
12.05.2012 07:08 15,3 C 84 % 0,0 l/m 0,6 km/h (0 Bft) N 360 12,6 C 13,6 C 2,1 km/h (1 Bft)
12.05.2012 07:10 15,2 C 84 % 0,0 l/m 0,6 km/h (0 Bft) N 360 12,5 C 13,6 C 2,1 km/h (1 Bft)
12.05.2012 07:12 15,2 C 84 % 0,0 l/m 0,6 km/h (0 Bft) N 360 12,5 C 13,7 C 1,6 km/h (1 Bft)
12.05.2012 07:14 15,3 C 84 % 0,0 l/m 0,6 km/h (0 Bft) N 360 12,6 C 13,7 C 0,0 km/h (0 Bft)
12.05.2012 07:16 15,2 C 84 % 0,0 l/m 0,6 km/h (0 Bft) N-NO 22 12,5 C 13,7 C 0,0 km/h (0 Bft)
12.05.2012 07:18 15,2 C 84 % 0,0 l/m 0,3 km/h (0 Bft) N 360 12,5 C 13,8 C 0,0 km/h (0 Bft)
12.05.2012 07:20 15,3 C 84 % 0,0 l/m 0,3 km/h (0 Bft) O-NO 67 12,6 C 13,8 C 0,0 km/h (0 Bft)
12.05.2012 07:22 15,4 C 85 % 0,0 l/m 0,3 km/h (0 Bft) N 360 12,9 C 13,9 C 1,8 km/h (1 Bft)
12.05.2012 07:24 15,4 C 85 % 0,0 l/m 0,2 km/h (0 Bft) N 360 12,9 C 14,0 C 1,8 km/h (1 Bft)
12.05.2012 07:26 15,5 C 84 % 0,0 l/m 0,2 km/h (0 Bft) N-NW 337 12,8 C 14,0 C 0,0 km/h (0 Bft)
12.05.2012 07:28 15,5 C 85 % 0,0 l/m 0,2 km/h (0 Bft) N-NO 22 13,0 C 14,0 C 0,0 km/h (0 Bft)
12.05.2012 07:30 15,4 C 85 % 0,0 l/m 0,2 km/h (0 Bft) N-NO 22 12,9 C 14,1 C 0,0 km/h (0 Bft)
12.05.2012 07:32 15,5 C 85 % 0,0 l/m 0,2 km/h (0 Bft) N-NO 22 13,0 C 14,2 C 0,0 km/h (0 Bft)
12.05.2012 07:34 15,5 C 85 % 0,0 l/m 0,2 km/h (0 Bft) N 360 13,0 C 14,2 C 1,6 km/h (1 Bft)
12.05.2012 07:36 15,5 C 85 % 0,0 l/m 0,0 km/h (0 Bft) N-NO 22 13,0 C 14,2 C 1,6 km/h (1 Bft)
12.05.2012 07:38 15,5 C 85 % 0,0 l/m 0,0 km/h (0 Bft) N-NO 22 13,0 C 14,2 C 0,0 km/h (0 Bft)
12.05.2012 07:40 15,4 C 85 % 0,0 l/m 0,0 km/h (0 Bft) N-NO 22 12,9 C 14,2 C 0,0 km/h (0 Bft)
12.05.2012 07:42 15,5 C 85 % 0,0 l/m 0,0 km/h (0 Bft) N 360 13,0 C 14,2 C 0,0 km/h (0 Bft)
12.05.2012 07:44 15,5 C 85 % 0,0 l/m 0,2 km/h (0 Bft) N 360 13,0 C 14,2 C 2,1 km/h (1 Bft)
12.05.2012 07:46 15,4 C 85 % 0,0 l/m 0,2 km/h (0 Bft) NO 45 12,9 C 14,2 C 2,1 km/h (1 Bft)
12.05.2012 07:48 15,5 C 86 % 0,0 l/m 0,2 km/h (0 Bft) N 360 13,2 C 14,3 C 1,9 km/h (1 Bft)
12.05.2012 07:50 15,6 C 86 % 0,0 l/m 0,3 km/h (0 Bft) N-NO 22 13,3 C 14,3 C 1,9 km/h (1 Bft)
12.05.2012 07:52 15,6 C 86 % 0,0 l/m 0,3 km/h (0 Bft) NO 45 13,3 C 14,4 C 1,6 km/h (1 Bft)
12.05.2012 07:54 15,6 C 86 % 0,0 l/m 0,3 km/h (0 Bft) NO 45 13,3 C 14,4 C 1,6 km/h (1 Bft)
12.05.2012 07:56 15,6 C 86 % 0,0 l/m 0,2 km/h (0 Bft) NO 45 13,3 C 14,4 C 0,0 km/h (0 Bft)
12.05.2012 07:58 15,6 C 86 % 0,0 l/m 0,3 km/h (0 Bft) O-SO 112 13,3 C 14,5 C 0,0 km/h (0 Bft)
12.05.2012 08:00 15,6 C 86 % 0,0 l/m 0,2 km/h (0 Bft) O 90 13,3 C 14,5 C 0,0 km/h (0 Bft)
12.05.2012 08:02 15,7 C 86 % 0,0 l/m 0,3 km/h (0 Bft) O-SO 112 13,4 C 14,6 C 0,0 km/h (0 Bft)
12.05.2012 08:04 15,7 C 85 % 0,0 l/m 0,3 km/h (0 Bft) NO 45 13,2 C 14,6 C 0,0 km/h (0 Bft)
12.05.2012 08:06 15,8 C 85 % 0,0 l/m 0,3 km/h (0 Bft) O-SO 112 13,3 C 14,7 C 0,0 km/h (0 Bft)
12.05.2012 08:08 15,8 C 85 % 0,0 l/m 0,6 km/h (0 Bft) O-SO 112 13,3 C 14,7 C 2,9 km/h (1 Bft)
12.05.2012 08:10 15,8 C 85 % 0,0 l/m 0,6 km/h (0 Bft) O-SO 112 13,3 C 14,7 C 2,9 km/h (1 Bft)
12.05.2012 08:12 15,9 C 85 % 0,0 l/m 0,6 km/h (0 Bft) O-NO 67 13,4 C 14,7 C 0,0 km/h (0 Bft)
12.05.2012 08:14 15,9 C 85 % 0,0 l/m 0,5 km/h (0 Bft) NO 45 13,4 C 14,6 C 0,0 km/h (0 Bft)
12.05.2012 08:16 15,9 C 85 % 0,0 l/m 1,0 km/h (0 Bft) SO 135 13,4 C 14,6 C 2,6 km/h (1 Bft)
12.05.2012 08:18 15,9 C 85 % 0,7 l/m 1,4 km/h (1 Bft) O-SO 112 13,4 C 14,5 C 3,9 km/h (1 Bft)
12.05.2012 08:20 15,9 C 85 % 0,0 l/m 1,8 km/h (1 Bft) O-SO 112 13,4 C 14,5 C 8,0 km/h (2 Bft)
12.05.2012 08:22 15,9 C 85 % 0,0 l/m 2,1 km/h (1 Bft) NO 45 13,4 C 14,4 C 8,0 km/h (2 Bft)
12.05.2012 08:24 15,9 C 85 % 0,0 l/m 2,7 km/h (1 Bft) O 90 13,4 C 14,4 C 3,5 km/h (1 Bft)
12.05.2012 08:26 15,9 C 85 % 0,0 l/m 3,5 km/h (1 Bft) SO 135 13,4 C 14,4 C 8,2 km/h (2 Bft)
12.05.2012 08:28 15,9 C 85 % 0,0 l/m 4,0 km/h (1 Bft) SO 135 13,4 C 14,4 C 8,2 km/h (2 Bft)
12.05.2012 08:30 15,8 C 85 % 0,0 l/m 4,3 km/h (1 Bft) SO 135 13,3 C 14,3 C 6,1 km/h (2 Bft)
12.05.2012 08:32 15,8 C 85 % 0,0 l/m 4,7 km/h (1 Bft) O 90 13,3 C 14,2 C 9,3 km/h (2 Bft)
12.05.2012 08:34 15,9 C 85 % 0,7 l/m 5,0 km/h (1 Bft) SO 135 13,4 C 14,2 C 9,3 km/h (2 Bft)
12.05.2012 08:36 15,8 C 85 % 0,7 l/m 4,3 km/h (1 Bft) S 180 13,3 C 14,2 C 2,9 km/h (1 Bft)
12.05.2012 08:38 15,9 C 84 % 0,0 l/m 3,9 km/h (1 Bft) O-SO 112 13,2 C 14,1 C 4,2 km/h (1 Bft)
12.05.2012 08:40 15,8 C 85 % 0,7 l/m 3,7 km/h (1 Bft) S-SW 202 13,3 C 14,1 C 4,2 km/h (1 Bft)
12.05.2012 08:42 15,9 C 85 % 0,0 l/m 3,7 km/h (1 Bft) SW 225 13,4 C 14,2 C 7,7 km/h (2 Bft)
12.05.2012 08:44 15,9 C 85 % 0,0 l/m 3,2 km/h (1 Bft) O-SO 112 13,4 C 14,2 C 7,7 km/h (2 Bft)
12.05.2012 08:46 15,9 C 85 % 0,0 l/m 3,5 km/h (1 Bft) O-SO 112 13,4 C 14,2 C 9,5 km/h (2 Bft)
12.05.2012 08:48 15,9 C 85 % 0,0 l/m 4,7 km/h (1 Bft) O-SO 112 13,4 C 14,2 C 9,5 km/h (2 Bft)
12.05.2012 08:50 15,9 C 85 % 0,0 l/m 5,6 km/h (1 Bft) S-SO 157 13,4 C 14,2 C 8,9 km/h (2 Bft)
12.05.2012 08:52 15,6 C 82 % 0,0 l/m 6,4 km/h (2 Bft) O-SO 112 12,5 C 14,1 C 11,1 km/h (2 Bft)
12.05.2012 08:54 15,2 C 81 % 0,0 l/m 7,4 km/h (2 Bft) W 270 12,0 C 12,8 C 11,1 km/h (2 Bft)
12.05.2012 08:56 15,1 C 81 % 0,0 l/m 8,4 km/h (2 Bft) SO 135 11,9 C 11,5 C 13,7 km/h (3 Bft)
12.05.2012 08:58 14,7 C 81 % 0,0 l/m 8,7 km/h (2 Bft) S 180 11,5 C 10,8 C 13,7 km/h (3 Bft)
12.05.2012 09:00 14,6 C 81 % 0,7 l/m 8,5 km/h (2 Bft) S 180 11,4 C 10,4 C 8,5 km/h (2 Bft)
12.05.2012 09:02 14,5 C 81 % 0,0 l/m 7,7 km/h (2 Bft) W-SW 247 11,3 C 10,8 C 7,7 km/h (2 Bft)
12.05.2012 09:04 14,2 C 82 % 0,0 l/m 7,2 km/h (2 Bft) O-SO 112 11,2 C 11,1 C 6,1 km/h (2 Bft)
12.05.2012 09:06 14,1 C 82 % 0,0 l/m 6,8 km/h (2 Bft) S 180 11,1 C 11,1 C 7,9 km/h (2 Bft)
12.05.2012 09:08 14,0 C 82 % 0,0 l/m 6,3 km/h (2 Bft) SO 135 11,0 C 11,4 C 7,9 km/h (2 Bft)
12.05.2012 09:10 14,0 C 82 % 0,0 l/m 5,8 km/h (2 Bft) SO 135 11,0 C 11,5 C 8,4 km/h (2 Bft)
12.05.2012 09:12 14,0 C 82 % 0,0 l/m 5,6 km/h (1 Bft) S 180 11,0 C 11,4 C 8,4 km/h (2 Bft)
12.05.2012 09:14 13,9 C 82 % 0,0 l/m 5,5 km/h (1 Bft) S-SO 157 10,9 C 11,4 C 6,4 km/h (2 Bft)
12.05.2012 09:16 13,9 C 83 % 0,0 l/m 5,5 km/h (1 Bft) S-SO 157 11,1 C 11,4 C 4,8 km/h (1 Bft)
12.05.2012 09:18 13,9 C 83 % 0,0 l/m 5,0 km/h (1 Bft) S-SO 157 11,1 C 11,4 C 7,6 km/h (2 Bft)
12.05.2012 09:20 13,9 C 83 % 0,0 l/m 5,1 km/h (1 Bft) S 180 11,1 C 11,3 C 7,6 km/h (2 Bft)
12.05.2012 09:22 13,7 C 82 % 0,0 l/m 4,7 km/h (1 Bft) S 180 10,7 C 11,4 C 4,5 km/h (1 Bft)
12.05.2012 09:24 13,6 C 82 % 0,0 l/m 4,5 km/h (1 Bft) W-SW 247 10,6 C 11,3 C 5,0 km/h (1 Bft)
12.05.2012 09:26 13,7 C 82 % 0,0 l/m 4,3 km/h (1 Bft) S-SO 157 10,7 C 11,3 C 5,6 km/h (1 Bft)
12.05.2012 09:28 13,6 C 82 % 0,0 l/m 4,2 km/h (1 Bft) W 270 10,6 C 11,3 C 5,6 km/h (1 Bft)
12.05.2012 09:30 13,5 C 82 % 0,0 l/m 3,9 km/h (1 Bft) S 180 10,5 C 11,2 C 3,4 km/h (1 Bft)
12.05.2012 09:32 13,5 C 82 % 0,0 l/m 4,0 km/h (1 Bft) S 180 10,5 C 11,2 C 4,2 km/h (1 Bft)
12.05.2012 09:34 13,5 C 82 % 0,0 l/m 3,7 km/h (1 Bft) SO 135 10,5 C 11,1 C 2,7 km/h (1 Bft)
12.05.2012 09:36 13,3 C 82 % 0,0 l/m 3,5 km/h (1 Bft) SO 135 10,3 C 11,1 C 4,5 km/h (1 Bft)
12.05.2012 09:38 13,3 C 83 % 0,0 l/m 3,7 km/h (1 Bft) S 180 10,5 C 11,1 C 7,1 km/h (2 Bft)
12.05.2012 09:40 13,4 C 83 % 0,0 l/m 4,0 km/h (1 Bft) O-SO 112 10,6 C 11,1 C 7,1 km/h (2 Bft)
12.05.2012 09:42 13,3 C 83 % 0,0 l/m 4,0 km/h (1 Bft) SO 135 10,5 C 11,1 C 5,3 km/h (1 Bft)
12.05.2012 09:44 13,2 C 83 % 0,0 l/m 4,2 km/h (1 Bft) S 180 10,4 C 11,0 C 5,3 km/h (1 Bft)
12.05.2012 09:46 13,3 C 83 % 0,0 l/m 4,3 km/h (1 Bft) S-SO 157 10,5 C 11,0 C 5,5 km/h (1 Bft)
12.05.2012 09:48 13,2 C 83 % 0,0 l/m 4,2 km/h (1 Bft) S-SO 157 10,4 C 11,0 C 5,5 km/h (1 Bft)
12.05.2012 09:50 13,2 C 83 % 0,0 l/m 3,5 km/h (1 Bft) O-NO 67 10,4 C 11,0 C 2,3 km/h (1 Bft)
12.05.2012 09:52 13,1 C 83 % 0,0 l/m 3,4 km/h (1 Bft) W-SW 247 10,3 C 10,9 C 3,5 km/h (1 Bft)
12.05.2012 09:54 13,1 C 83 % 0,0 l/m 3,2 km/h (1 Bft) S-SW 202 10,3 C 10,9 C 3,5 km/h (1 Bft)
12.05.2012 09:56 12,9 C 82 % 0,0 l/m 3,1 km/h (1 Bft) S-SO 157 9,9 C 10,9 C 3,5 km/h (1 Bft)
12.05.2012 09:58 12,8 C 82 % 0,0 l/m 2,7 km/h (1 Bft) W-SW 247 9,8 C 10,9 C 2,1 km/h (1 Bft)
12.05.2012 10:00 12,7 C 83 % 0,0 l/m 3,1 km/h (1 Bft) S-SO 157 9,9 C 10,9 C 4,7 km/h (1 Bft)
12.05.2012 10:02 12,7 C 83 % 0,0 l/m 3,5 km/h (1 Bft) S-SW 202 9,9 C 10,8 C 8,5 km/h (2 Bft)
12.05.2012 10:04 12,5 C 83 % 0,0 l/m 4,0 km/h (1 Bft) S-SW 202 9,7 C 10,7 C 8,5 km/h (2 Bft)
12.05.2012 10:06 12,5 C 84 % 0,0 l/m 4,2 km/h (1 Bft) SO 135 9,9 C 10,6 C 4,7 km/h (1 Bft)
12.05.2012 10:08 12,5 C 84 % 0,0 l/m 4,5 km/h (1 Bft) S 180 9,9 C 10,6 C 6,0 km/h (2 Bft)
12.05.2012 10:10 12,5 C 84 % 0,0 l/m 4,3 km/h (1 Bft) S-SO 157 9,9 C 10,6 C 6,0 km/h (2 Bft)
12.05.2012 10:12 12,5 C 84 % 0,0 l/m 4,5 km/h (1 Bft) SO 135 9,9 C 10,6 C 5,5 km/h (1 Bft)
12.05.2012 10:14 12,5 C 84 % 0,0 l/m 4,0 km/h (1 Bft) S 180 9,9 C 10,5 C 5,5 km/h (1 Bft)
12.05.2012 10:16 12,4 C 84 % 0,0 l/m 3,5 km/h (1 Bft) S 180 9,8 C 10,5 C 5,1 km/h (1 Bft)
12.05.2012 10:18 12,4 C 83 % 0,0 l/m 3,9 km/h (1 Bft) SW 225 9,6 C 10,4 C 5,3 km/h (1 Bft)
12.05.2012 10:20 12,5 C 84 % 0,0 l/m 4,0 km/h (1 Bft) W-SW 247 9,9 C 10,4 C 5,3 km/h (1 Bft)
12.05.2012 10:22 12,4 C 84 % 0,0 l/m 3,5 km/h (1 Bft) S 180 9,8 C 10,4 C 5,1 km/h (1 Bft)
12.05.2012 10:24 12,4 C 84 % 0,0 l/m 3,2 km/h (1 Bft) S-SO 157 9,8 C 10,4 C 4,8 km/h (1 Bft)
12.05.2012 10:26 12,4 C 84 % 0,0 l/m 3,2 km/h (1 Bft) S-SW 202 9,8 C 10,4 C 4,2 km/h (1 Bft)
12.05.2012 10:28 12,4 C 84 % 0,0 l/m 2,9 km/h (1 Bft) SO 135 9,8 C 10,4 C 2,7 km/h (1 Bft)
12.05.2012 10:30 12,5 C 84 % 0,0 l/m 3,1 km/h (1 Bft) S 180 9,9 C 10,4 C 4,5 km/h (1 Bft)
12.05.2012 10:32 12,4 C 84 % 0,0 l/m 3,2 km/h (1 Bft) S-SO 157 9,8 C 10,4 C 4,5 km/h (1 Bft)
12.05.2012 10:34 12,4 C 83 % 0,0 l/m 3,9 km/h (1 Bft) S 180 9,6 C 10,4 C 6,4 km/h (2 Bft)
12.05.2012 10:36 12,3 C 84 % 0,0 l/m 4,0 km/h (1 Bft) S-SO 157 9,7 C 10,3 C 6,4 km/h (2 Bft)
12.05.2012 10:38 12,3 C 84 % 0,0 l/m 4,7 km/h (1 Bft) S 180 9,7 C 10,2 C 8,9 km/h (2 Bft)
12.05.2012 10:40 12,2 C 83 % 0,0 l/m 5,1 km/h (1 Bft) S 180 9,4 C 9,9 C 8,9 km/h (2 Bft)
12.05.2012 10:42 12,3 C 83 % 0,0 l/m 5,3 km/h (1 Bft) W-SW 247 9,5 C 9,8 C 5,8 km/h (2 Bft)
12.05.2012 10:44 12,3 C 83 % 0,0 l/m 5,0 km/h (1 Bft) S 180 9,5 C 9,9 C 5,0 km/h (1 Bft)
12.05.2012 10:46 12,3 C 83 % 0,0 l/m 5,1 km/h (1 Bft) S-SO 157 9,5 C 9,8 C 8,9 km/h (2 Bft)
12.05.2012 10:48 12,1 C 83 % 0,0 l/m 5,1 km/h (1 Bft) S 180 9,3 C 9,8 C 8,9 km/h (2 Bft)
12.05.2012 10:50 12,0 C 83 % 0,0 l/m 4,7 km/h (1 Bft) W-SW 247 9,2 C 9,9 C 6,8 km/h (2 Bft)
12.05.2012 10:52 12,0 C 84 % 0,0 l/m 4,7 km/h (1 Bft) S-SO 157 9,4 C 9,9 C 5,8 km/h (2 Bft)
12.05.2012 10:54 12,0 C 84 % 0,0 l/m 5,1 km/h (1 Bft) S 180 9,4 C 9,8 C 7,2 km/h (2 Bft)
12.05.2012 10:56 12,0 C 84 % 0,0 l/m 5,5 km/h (1 Bft) S 180 9,4 C 9,7 C 7,1 km/h (2 Bft)
12.05.2012 10:58 11,9 C 83 % 0,0 l/m 5,6 km/h (1 Bft) S 180 9,1 C 9,6 C 8,7 km/h (2 Bft)
12.05.2012 11:00 11,7 C 82 % 0,0 l/m 6,1 km/h (2 Bft) SO 135 8,7 C 9,3 C 9,0 km/h (2 Bft)
12.05.2012 11:02 11,6 C 82 % 0,7 l/m 6,9 km/h (2 Bft) S 180 8,6 C 8,4 C 9,0 km/h (2 Bft)
12.05.2012 11:04 11,4 C 81 % 0,0 l/m 7,6 km/h (2 Bft) S 180 8,3 C 7,3 C 9,7 km/h (2 Bft)
12.05.2012 11:06 11,2 C 81 % 0,0 l/m 7,2 km/h (2 Bft) S-SW 202 8,1 C 7,5 C 17,4 km/h (3 Bft)
12.05.2012 11:08 11,0 C 81 % 0,0 l/m 7,2 km/h (2 Bft) W-SW 247 7,9 C 7,2 C 8,4 km/h (2 Bft)
12.05.2012 11:10 10,9 C 81 % 0,0 l/m 7,1 km/h (2 Bft) S-SO 157 7,8 C 7,1 C 10,0 km/h (2 Bft)
12.05.2012 11:12 10,9 C 81 % 0,0 l/m 6,4 km/h (2 Bft) S-SO 157 7,8 C 7,6 C 10,0 km/h (2 Bft)
12.05.2012 11:14 10,8 C 82 % 0,0 l/m 5,8 km/h (2 Bft) W-SW 247 7,9 C 7,7 C 4,7 km/h (1 Bft)
12.05.2012 11:16 10,8 C 82 % 0,0 l/m 5,0 km/h (1 Bft) S 180 7,9 C 7,9 C 4,7 km/h (1 Bft)
12.05.2012 11:18 10,8 C 82 % 0,0 l/m 4,2 km/h (1 Bft) S-SW 202 7,9 C 8,2 C 2,7 km/h (1 Bft)
12.05.2012 11:20 10,8 C 82 % 0,0 l/m 3,9 km/h (1 Bft) SO 135 7,9 C 8,3 C 6,0 km/h (2 Bft)
12.05.2012 11:22 10,8 C 82 % 0,0 l/m 3,4 km/h (1 Bft) S 180 7,9 C 8,4 C 6,0 km/h (2 Bft)
12.05.2012 11:24 10,9 C 82 % 0,0 l/m 3,2 km/h (1 Bft) S 180 7,9 C 8,3 C 5,1 km/h (1 Bft)
12.05.2012 11:26 10,8 C 82 % 0,0 l/m 3,4 km/h (1 Bft) S 180 7,9 C 8,2 C 5,8 km/h (2 Bft)
12.05.2012 11:28 10,7 C 82 % 0,0 l/m 3,5 km/h (1 Bft) SO 135 7,8 C 8,2 C 5,8 km/h (2 Bft)
12.05.2012 11:30 10,7 C 83 % 0,0 l/m 3,7 km/h (1 Bft) O-SO 112 7,9 C 8,2 C 3,9 km/h (1 Bft)
12.05.2012 11:32 10,6 C 83 % 0,0 l/m 3,9 km/h (1 Bft) S 180 7,8 C 8,2 C 3,4 km/h (1 Bft)
12.05.2012 11:34 10,6 C 83 % 0,0 l/m 3,9 km/h (1 Bft) S 180 7,8 C 8,2 C 5,8 km/h (2 Bft)
12.05.2012 11:36 10,7 C 83 % 0,0 l/m 4,2 km/h (1 Bft) S 180 7,9 C 7,9 C 6,9 km/h (2 Bft)
12.05.2012 11:38 10,6 C 83 % 0,0 l/m 4,2 km/h (1 Bft) S 180 7,8 C 7,9 C 6,9 km/h (2 Bft)
12.05.2012 11:40 10,7 C 83 % 0,0 l/m 4,0 km/h (1 Bft) O-NO 67 7,9 C 7,9 C 7,1 km/h (2 Bft)
12.05.2012 11:42 10,7 C 83 % 0,7 l/m 4,2 km/h (1 Bft) S-SO 157 7,9 C 7,9 C 7,1 km/h (2 Bft)
12.05.2012 11:44 10,5 C 82 % 0,0 l/m 3,7 km/h (1 Bft) O-SO 112 7,6 C 8,1 C 4,7 km/h (1 Bft)
12.05.2012 11:46 10,6 C 83 % 0,0 l/m 3,1 km/h (1 Bft) O 90 7,8 C 8,1 C 2,1 km/h (1 Bft)
12.05.2012 11:48 10,7 C 83 % 0,0 l/m 2,9 km/h (1 Bft) S 180 7,9 C 8,2 C 4,0 km/h (1 Bft)
12.05.2012 11:50 10,7 C 83 % 0,0 l/m 2,7 km/h (1 Bft) SW 225 7,9 C 8,2 C 4,0 km/h (1 Bft)
12.05.2012 11:52 10,8 C 83 % 0,7 l/m 2,7 km/h (1 Bft) W 270 8,0 C 8,3 C 4,8 km/h (1 Bft)
12.05.2012 11:54 10,7 C 81 % 0,0 l/m 2,7 km/h (1 Bft) W 270 7,6 C 8,4 C 4,8 km/h (1 Bft)
12.05.2012 11:56 10,6 C 82 % 0,0 l/m 2,4 km/h (1 Bft) S 180 7,7 C 8,4 C 3,4 km/h (1 Bft)
12.05.2012 11:58 10,7 C 82 % 0,0 l/m 2,7 km/h (1 Bft) S-SO 157 7,8 C 8,4 C 4,7 km/h (1 Bft)
12.05.2012 12:00 10,6 C 82 % 0,0 l/m 2,6 km/h (1 Bft) S 180 7,7 C 8,4 C 4,7 km/h (1 Bft)
12.05.2012 12:02 10,7 C 82 % 0,0 l/m 2,9 km/h (1 Bft) S-SW 202 7,8 C 8,4 C 5,1 km/h (1 Bft)
12.05.2012 12:04 10,7 C 82 % 0,0 l/m 2,7 km/h (1 Bft) S 180 7,8 C 8,4 C 5,1 km/h (1 Bft)
12.05.2012 12:06 10,7 C 82 % 0,0 l/m 3,1 km/h (1 Bft) S 180 7,8 C 8,4 C 4,5 km/h (1 Bft)
12.05.2012 12:08 10,8 C 82 % 0,0 l/m 3,1 km/h (1 Bft) W-SW 247 7,9 C 8,4 C 3,7 km/h (1 Bft)
12.05.2012 12:10 10,8 C 81 % 0,0 l/m 2,7 km/h (1 Bft) S 180 7,7 C 8,4 C 2,7 km/h (1 Bft)
12.05.2012 12:12 10,8 C 81 % 0,0 l/m 2,6 km/h (1 Bft) W-SW 247 7,7 C 8,4 C 2,7 km/h (1 Bft)
12.05.2012 12:14 10,8 C 81 % 0,0 l/m 2,3 km/h (1 Bft) SO 135 7,7 C 8,4 C 2,9 km/h (1 Bft)
12.05.2012 12:16 10,9 C 81 % 0,0 l/m 2,1 km/h (1 Bft) O-SO 112 7,8 C 8,5 C 2,9 km/h (1 Bft)
12.05.2012 12:18 10,9 C 81 % 0,0 l/m 1,9 km/h (1 Bft) NO 45 7,8 C 8,6 C 2,1 km/h (1 Bft)
12.05.2012 12:20 10,8 C 81 % 0,0 l/m 1,8 km/h (1 Bft) NO 45 7,7 C 8,6 C 2,1 km/h (1 Bft)
12.05.2012 12:22 10,9 C 80 % 0,0 l/m 1,3 km/h (1 Bft) NO 45 7,6 C 8,7 C 1,8 km/h (1 Bft)
12.05.2012 12:24 10,8 C 81 % 0,0 l/m 1,1 km/h (1 Bft) O 90 7,7 C 8,8 C 0,0 km/h (0 Bft)
12.05.2012 12:26 10,8 C 81 % 0,0 l/m 0,8 km/h (0 Bft) O 90 7,7 C 8,8 C 0,0 km/h (0 Bft)
12.05.2012 12:28 10,9 C 81 % 0,0 l/m 0,3 km/h (0 Bft) SO 135 7,8 C 9,0 C 0,0 km/h (0 Bft)
12.05.2012 12:30 10,9 C 81 % 0,0 l/m 0,2 km/h (0 Bft) SO 135 7,8 C 9,1 C 1,9 km/h (1 Bft)
12.05.2012 12:32 11,1 C 81 % 0,0 l/m 0,2 km/h (0 Bft) S-SW 202 8,0 C 9,1 C 1,9 km/h (1 Bft)
12.05.2012 12:34 11,1 C 81 % 0,0 l/m 0,3 km/h (0 Bft) SO 135 8,0 C 9,1 C 2,9 km/h (1 Bft)
12.05.2012 12:36 11,0 C 81 % 0,0 l/m 0,5 km/h (0 Bft) S 180 7,9 C 9,1 C 2,9 km/h (1 Bft)
12.05.2012 12:38 11,0 C 80 % 0,0 l/m 0,8 km/h (0 Bft) W 270 7,7 C 9,2 C 2,9 km/h (1 Bft)
12.05.2012 12:40 11,1 C 80 % 0,0 l/m 1,1 km/h (1 Bft) S 180 7,8 C 9,2 C 2,9 km/h (1 Bft)
12.05.2012 12:42 11,1 C 80 % 0,0 l/m 1,0 km/h (0 Bft) W-NW 292 7,8 C 9,2 C 1,6 km/h (1 Bft)
12.05.2012 12:44 10,8 C 79 % 0,0 l/m 0,8 km/h (0 Bft) W-SW 247 7,3 C 9,2 C 0,0 km/h (0 Bft)
12.05.2012 12:46 10,8 C 80 % 0,0 l/m 0,6 km/h (0 Bft) O-SO 112 7,5 C 9,2 C 0,0 km/h (0 Bft)
12.05.2012 12:48 10,8 C 79 % 0,0 l/m 0,8 km/h (0 Bft) W-NW 292 7,3 C 9,2 C 3,4 km/h (1 Bft)
12.05.2012 12:50 10,8 C 79 % 0,0 l/m 0,5 km/h (0 Bft) W-SW 247 7,3 C 9,1 C 3,4 km/h (1 Bft)
12.05.2012 12:52 10,8 C 79 % 0,0 l/m 0,6 km/h (0 Bft) N-NW 337 7,3 C 9,0 C 2,7 km/h (1 Bft)
12.05.2012 12:54 10,8 C 80 % 0,0 l/m 1,0 km/h (0 Bft) W-NW 292 7,5 C 9,1 C 3,2 km/h (1 Bft)
12.05.2012 12:56 10,8 C 80 % 0,0 l/m 1,3 km/h (1 Bft) W-SW 247 7,5 C 9,0 C 3,2 km/h (1 Bft)
12.05.2012 12:58 10,8 C 80 % 0,0 l/m 1,6 km/h (1 Bft) S-SW 202 7,5 C 9,1 C 2,1 km/h (1 Bft)
12.05.2012 13:00 10,8 C 81 % 0,0 l/m 1,3 km/h (1 Bft) S 180 7,7 C 9,0 C 3,4 km/h (1 Bft)
12.05.2012 13:02 10,8 C 81 % 0,0 l/m 1,6 km/h (1 Bft) S 180 7,7 C 9,0 C 3,4 km/h (1 Bft)
12.05.2012 13:04 10,8 C 81 % 0,0 l/m 1,6 km/h (1 Bft) S 180 7,7 C 8,9 C 1,9 km/h (1 Bft)
12.05.2012 13:06 10,8 C 81 % 0,0 l/m 1,6 km/h (1 Bft) SO 135 7,7 C 8,8 C 4,7 km/h (1 Bft)
12.05.2012 13:08 10,8 C 80 % 0,0 l/m 1,9 km/h (1 Bft) SO 135 7,5 C 8,7 C 4,7 km/h (1 Bft)
12.05.2012 13:10 10,8 C 79 % 0,7 l/m 2,1 km/h (1 Bft) SO 135 7,3 C 8,5 C 3,4 km/h (1 Bft)
12.05.2012 13:12 10,6 C 79 % 0,0 l/m 2,4 km/h (1 Bft) SO 135 7,1 C 8,3 C 7,1 km/h (2 Bft)
12.05.2012 13:14 10,7 C 79 % 0,7 l/m 3,4 km/h (1 Bft) O-SO 112 7,2 C 8,1 C 7,1 km/h (2 Bft)
12.05.2012 13:16 10,5 C 79 % 0,0 l/m 3,9 km/h (1 Bft) SO 135 7,0 C 7,9 C 6,4 km/h (2 Bft)
12.05.2012 13:18 10,5 C 79 % 0,0 l/m 4,0 km/h (1 Bft) O 90 7,0 C 7,7 C 4,8 km/h (1 Bft)
12.05.2012 13:20 10,5 C 80 % 0,0 l/m 4,2 km/h (1 Bft) NO 45 7,2 C 7,5 C 4,8 km/h (1 Bft)
12.05.2012 13:22 10,4 C 80 % 0,0 l/m 4,2 km/h (1 Bft) SO 135 7,1 C 7,4 C 4,2 km/h (1 Bft)
12.05.2012 13:24 10,5 C 80 % 0,0 l/m 3,4 km/h (1 Bft) N-NO 22 7,2 C 7,6 C 4,2 km/h (1 Bft)
12.05.2012 13:26 10,3 C 80 % 0,0 l/m 2,7 km/h (1 Bft) N-NO 22 7,0 C 7,6 C 1,8 km/h (1 Bft)
12.05.2012 13:28 10,3 C 81 % 0,0 l/m 2,3 km/h (1 Bft) O 90 7,2 C 7,7 C 3,4 km/h (1 Bft)
12.05.2012 13:30 10,3 C 81 % 0,0 l/m 1,4 km/h (1 Bft) NO 45 7,2 C 7,7 C 3,4 km/h (1 Bft)
12.05.2012 13:32 10,3 C 81 % 0,7 l/m 1,3 km/h (1 Bft) O-SO 112 7,2 C 7,8 C 4,5 km/h (1 Bft)
12.05.2012 13:34 10,4 C 81 % 0,0 l/m 1,3 km/h (1 Bft) O-SO 112 7,3 C 7,8 C 4,5 km/h (1 Bft)
12.05.2012 13:36 10,4 C 81 % 0,0 l/m 1,3 km/h (1 Bft) NO 45 7,3 C 7,8 C 3,4 km/h (1 Bft)
12.05.2012 13:38 10,3 C 80 % 0,7 l/m 1,3 km/h (1 Bft) O 90 7,0 C 7,8 C 0,0 km/h (0 Bft)
12.05.2012 13:40 10,3 C 80 % 0,0 l/m 1,1 km/h (1 Bft) N-NO 22 7,0 C 7,8 C 0,0 km/h (0 Bft)
12.05.2012 13:42 10,3 C 81 % 0,0 l/m 1,0 km/h (0 Bft) O-NO 67 7,2 C 7,8 C 0,0 km/h (0 Bft)
12.05.2012 13:44 10,3 C 80 % 0,0 l/m 0,5 km/h (0 Bft) N-NO 22 7,0 C 7,8 C 0,0 km/h (0 Bft)
12.05.2012 13:46 10,3 C 80 % 0,0 l/m 0,3 km/h (0 Bft) O 90 7,0 C 7,8 C 2,4 km/h (1 Bft)
12.05.2012 13:48 10,4 C 81 % 0,0 l/m 0,3 km/h (0 Bft) O 90 7,3 C 7,8 C 2,4 km/h (1 Bft)
12.05.2012 13:50 10,4 C 80 % 0,7 l/m 0,2 km/h (0 Bft) W 270 7,1 C 7,9 C 0,0 km/h (0 Bft)
12.05.2012 13:52 10,7 C 80 % 0,0 l/m 0,2 km/h (0 Bft) S 180 7,4 C 7,9 C 0,0 km/h (0 Bft)
12.05.2012 13:54 10,7 C 81 % 0,0 l/m 0,2 km/h (0 Bft) SW 225 7,6 C 8,0 C 0,0 km/h (0 Bft)
12.05.2012 13:56 10,7 C 80 % 0,7 l/m 0,2 km/h (0 Bft) NW 315 7,4 C 8,1 C 0,0 km/h (0 Bft)
12.05.2012 13:58 10,7 C 80 % 0,0 l/m 0,0 km/h (0 Bft) N 360 7,4 C 8,4 C 0,0 km/h (0 Bft)
12.05.2012 14:00 10,9 C 80 % 0,0 l/m 0,2 km/h (0 Bft) O-SO 112 7,6 C 8,5 C 0,0 km/h (0 Bft)
12.05.2012 14:02 10,9 C 80 % 0,0 l/m 0,5 km/h (0 Bft) O 90 7,6 C 8,5 C 5,0 km/h (1 Bft)
12.05.2012 14:04 10,8 C 80 % 0,0 l/m 1,0 km/h (0 Bft) O 90 7,5 C 8,4 C 5,0 km/h (1 Bft)
12.05.2012 14:06 10,8 C 80 % 0,0 l/m 1,4 km/h (1 Bft) SO 135 7,5 C 8,4 C 3,1 km/h (1 Bft)
12.05.2012 14:08 10,8 C 80 % 0,0 l/m 1,9 km/h (1 Bft) SO 135 7,5 C 8,3 C 4,8 km/h (1 Bft)
12.05.2012 14:10 10,9 C 80 % 0,0 l/m 2,3 km/h (1 Bft) O-SO 112 7,6 C 8,3 C 4,8 km/h (1 Bft)
12.05.2012 14:12 10,8 C 80 % 0,0 l/m 2,3 km/h (1 Bft) O 90 7,5 C 8,3 C 3,7 km/h (1 Bft)
12.05.2012 14:14 10,8 C 80 % 0,0 l/m 1,9 km/h (1 Bft) O 90 7,5 C 8,3 C 2,9 km/h (1 Bft)
12.05.2012 14:16 10,8 C 79 % 0,0 l/m 1,6 km/h (1 Bft) O 90 7,3 C 8,3 C 2,9 km/h (1 Bft)
12.05.2012 14:18 10,8 C 79 % 0,0 l/m 1,1 km/h (1 Bft) N-NO 22 7,3 C 8,3 C 1,9 km/h (1 Bft)
12.05.2012 14:20 10,8 C 79 % 0,0 l/m 0,8 km/h (0 Bft) N-NO 22 7,3 C 8,3 C 0,0 km/h (0 Bft)
12.05.2012 14:22 10,7 C 79 % 0,0 l/m 0,6 km/h (0 Bft) S 180 7,2 C 8,3 C 0,0 km/h (0 Bft)
12.05.2012 14:24 10,7 C 79 % 0,0 l/m 0,5 km/h (0 Bft) N-NO 22 7,2 C 8,2 C 1,6 km/h (1 Bft)
12.05.2012 14:26 10,6 C 79 % 0,0 l/m 0,5 km/h (0 Bft) O-SO 112 7,1 C 8,1 C 2,1 km/h (1 Bft)
12.05.2012 14:28 10,6 C 79 % 0,0 l/m 0,5 km/h (0 Bft) N 360 7,1 C 8,1 C 2,1 km/h (1 Bft)
12.05.2012 14:30 10,7 C 79 % 0,0 l/m 0,5 km/h (0 Bft) W-SW 247 7,2 C 8,0 C 0,0 km/h (0 Bft)
12.05.2012 14:32 10,5 C 79 % 0,0 l/m 0,3 km/h (0 Bft) W 270 7,0 C 8,0 C 1,6 km/h (1 Bft)
12.05.2012 14:34 10,4 C 79 % 0,7 l/m 0,3 km/h (0 Bft) W 270 6,9 C 7,9 C 1,6 km/h (1 Bft)
12.05.2012 14:36 10,4 C 79 % 0,0 l/m 0,3 km/h (0 Bft) S-SO 157 6,9 C 7,9 C 0,0 km/h (0 Bft)
12.05.2012 14:38 10,5 C 79 % 0,0 l/m 0,2 km/h (0 Bft) N-NO 22 7,0 C 7,9 C 0,0 km/h (0 Bft)
12.05.2012 14:40 10,5 C 79 % 0,0 l/m 0,2 km/h (0 Bft) N 360 7,0 C 7,9 C 0,0 km/h (0 Bft)
12.05.2012 14:42 10,4 C 79 % 0,7 l/m 0,2 km/h (0 Bft) O-SO 112 6,9 C 7,9 C 0,0 km/h (0 Bft)
12.05.2012 14:44 10,5 C 79 % 0,0 l/m 0,0 km/h (0 Bft) NO 45 7,0 C 7,9 C 0,0 km/h (0 Bft)
12.05.2012 14:46 10,6 C 80 % 0,0 l/m 0,0 km/h (0 Bft) S-SO 157 7,3 C 7,9 C 0,0 km/h (0 Bft)
12.05.2012 14:48 10,5 C 80 % 0,0 l/m 0,0 km/h (0 Bft) NO 45 7,2 C 8,0 C 0,0 km/h (0 Bft)
12.05.2012 14:50 10,6 C 80 % 0,0 l/m 0,0 km/h (0 Bft) NO 45 7,3 C 8,1 C 0,0 km/h (0 Bft)
12.05.2012 14:52 10,7 C 80 % 0,7 l/m 0,0 km/h (0 Bft) NO 45 7,4 C 8,1 C 0,0 km/h (0 Bft)
12.05.2012 14:54 10,6 C 80 % 0,0 l/m 0,0 km/h (0 Bft) NO 45 7,3 C 8,2 C 0,0 km/h (0 Bft)
12.05.2012 14:56 10,6 C 80 % 0,0 l/m 0,2 km/h (0 Bft) O 90 7,3 C 8,2 C 0,0 km/h (0 Bft)
12.05.2012 14:58 10,6 C 80 % 0,0 l/m 0,2 km/h (0 Bft) O-SO 112 7,3 C 8,2 C 0,0 km/h (0 Bft)
12.05.2012 15:00 10,5 C 81 % 0,0 l/m 0,2 km/h (0 Bft) N-NO 22 7,4 C 8,1 C 0,0 km/h (0 Bft)
12.05.2012 15:02 10,5 C 81 % 0,0 l/m 0,2 km/h (0 Bft) O 90 7,4 C 8,2 C 0,0 km/h (0 Bft)
12.05.2012 15:04 10,6 C 81 % 0,0 l/m 0,2 km/h (0 Bft) N-NO 22 7,5 C 8,2 C 0,0 km/h (0 Bft)
12.05.2012 15:06 10,5 C 81 % 0,0 l/m 0,2 km/h (0 Bft) O-NO 67 7,4 C 8,3 C 0,0 km/h (0 Bft)
12.05.2012 15:08 10,7 C 81 % 0,0 l/m 0,2 km/h (0 Bft) S-SW 202 7,6 C 8,4 C 0,0 km/h (0 Bft)
12.05.2012 15:10 10,7 C 81 % 0,0 l/m 0,5 km/h (0 Bft) S-SO 157 7,6 C 8,4 C 4,0 km/h (1 Bft)
12.05.2012 15:12 10,7 C 81 % 0,0 l/m 1,1 km/h (1 Bft) SO 135 7,6 C 8,3 C 4,0 km/h (1 Bft)
12.05.2012 15:14 10,6 C 81 % 0,0 l/m 1,8 km/h (1 Bft) O-SO 112 7,5 C 8,2 C 3,9 km/h (1 Bft)
12.05.2012 15:16 10,7 C 81 % 0,0 l/m 2,3 km/h (1 Bft) O-SO 112 7,6 C 8,1 C 4,3 km/h (1 Bft)
12.05.2012 15:18 10,7 C 81 % 0,0 l/m 2,4 km/h (1 Bft) SO 135 7,6 C 8,1 C 4,3 km/h (1 Bft)
12.05.2012 15:20 10,7 C 81 % 0,0 l/m 2,3 km/h (1 Bft) NO 45 7,6 C 8,1 C 0,0 km/h (0 Bft)
12.05.2012 15:22 10,6 C 81 % 0,7 l/m 1,6 km/h (1 Bft) NO 45 7,5 C 8,2 C 0,0 km/h (0 Bft)
12.05.2012 15:24 10,5 C 81 % 0,0 l/m 1,1 km/h (1 Bft) NO 45 7,4 C 8,3 C 0,0 km/h (0 Bft)
12.05.2012 15:26 10,5 C 81 % 0,0 l/m 0,5 km/h (0 Bft) N-NO 22 7,4 C 8,4 C 2,1 km/h (1 Bft)
12.05.2012 15:28 10,7 C 81 % 0,0 l/m 0,3 km/h (0 Bft) SO 135 7,6 C 8,4 C 2,4 km/h (1 Bft)
12.05.2012 15:30 10,7 C 81 % 0,0 l/m 0,5 km/h (0 Bft) O-SO 112 7,6 C 8,4 C 2,4 km/h (1 Bft)
12.05.2012 15:32 10,6 C 81 % 0,0 l/m 0,6 km/h (0 Bft) O-NO 67 7,5 C 8,4 C 2,9 km/h (1 Bft)
12.05.2012 15:34 10,7 C 81 % 0,0 l/m 0,8 km/h (0 Bft) NO 45 7,6 C 8,4 C 2,9 km/h (1 Bft)
12.05.2012 15:36 10,7 C 81 % 0,0 l/m 1,0 km/h (0 Bft) NO 45 7,6 C 8,4 C 2,1 km/h (1 Bft)
12.05.2012 15:38 10,8 C 81 % 0,0 l/m 0,8 km/h (0 Bft) O-SO 112 7,7 C 8,4 C 2,1 km/h (1 Bft)
12.05.2012 15:40 10,8 C 81 % 0,0 l/m 0,6 km/h (0 Bft) N-NW 337 7,7 C 8,4 C 1,8 km/h (1 Bft)
12.05.2012 15:42 10,7 C 81 % 0,0 l/m 0,6 km/h (0 Bft) O-SO 112 7,6 C 8,4 C 0,0 km/h (0 Bft)
12.05.2012 15:44 10,7 C 81 % 0,0 l/m 0,3 km/h (0 Bft) NO 45 7,6 C 8,5 C 0,0 km/h (0 Bft)
12.05.2012 15:46 10,7 C 81 % 0,0 l/m 0,5 km/h (0 Bft) O-SO 112 7,6 C 8,5 C 2,9 km/h (1 Bft)
12.05.2012 15:48 10,8 C 81 % 0,0 l/m 0,8 km/h (0 Bft) O-SO 112 7,7 C 8,5 C 3,4 km/h (1 Bft)
12.05.2012 15:50 10,8 C 81 % 0,0 l/m 1,1 km/h (1 Bft) O-SO 112 7,7 C 8,4 C 3,4 km/h (1 Bft)
12.05.2012 15:52 10,7 C 81 % 0,0 l/m 1,3 km/h (1 Bft) O-NO 67 7,6 C 8,4 C 4,5 km/h (1 Bft)
12.05.2012 15:54 10,6 C 81 % 0,0 l/m 1,4 km/h (1 Bft) NO 45 7,5 C 8,4 C 4,5 km/h (1 Bft)
12.05.2012 15:56 10,7 C 81 % 0,0 l/m 1,6 km/h (1 Bft) S-SO 157 7,6 C 8,4 C 2,7 km/h (1 Bft)
12.05.2012 15:58 10,6 C 81 % 0,0 l/m 1,6 km/h (1 Bft) N-NO 22 7,5 C 8,4 C 2,7 km/h (1 Bft)
12.05.2012 16:00 10,7 C 81 % 0,0 l/m 1,1 km/h (1 Bft) N 360 7,6 C 8,4 C 0,0 km/h (0 Bft)
12.05.2012 16:02 10,4 C 81 % 0,0 l/m 1,0 km/h (0 Bft) N-NO 22 7,3 C 8,4 C 0,0 km/h (0 Bft)
12.05.2012 16:04 10,4 C 82 % 0,0 l/m 0,6 km/h (0 Bft) NO 45 7,5 C 8,4 C 0,0 km/h (0 Bft)
12.05.2012 16:06 10,4 C 82 % 0,0 l/m 0,6 km/h (0 Bft) NO 45 7,5 C 8,4 C 0,0 km/h (0 Bft)
12.05.2012 16:08 10,4 C 82 % 0,0 l/m 0,2 km/h (0 Bft) SO 135 7,5 C 8,4 C 0,0 km/h (0 Bft)
12.05.2012 16:10 10,4 C 82 % 0,0 l/m 0,2 km/h (0 Bft) S-SO 157 7,5 C 8,4 C 2,3 km/h (1 Bft)
12.05.2012 16:12 10,5 C 82 % 0,0 l/m 0,5 km/h (0 Bft) O 90 7,6 C 8,4 C 2,3 km/h (1 Bft)
12.05.2012 16:14 10,4 C 82 % 0,0 l/m 0,5 km/h (0 Bft) O 90 7,5 C 8,3 C 1,9 km/h (1 Bft)
12.05.2012 16:16 10,4 C 82 % 0,0 l/m 0,6 km/h (0 Bft) O-SO 112 7,5 C 8,3 C 1,9 km/h (1 Bft)
12.05.2012 16:18 10,4 C 82 % 0,0 l/m 0,6 km/h (0 Bft) O-SO 112 7,5 C 8,2 C 1,9 km/h (1 Bft)
12.05.2012 16:20 10,4 C 82 % 0,0 l/m 0,6 km/h (0 Bft) N 360 7,5 C 8,1 C 0,0 km/h (0 Bft)
12.05.2012 16:22 10,3 C 82 % 0,0 l/m 0,3 km/h (0 Bft) NO 45 7,4 C 8,1 C 0,0 km/h (0 Bft)
12.05.2012 16:24 10,3 C 82 % 0,0 l/m 0,2 km/h (0 Bft) S-SO 157 7,4 C 8,1 C 0,0 km/h (0 Bft)
12.05.2012 16:26 10,3 C 82 % 0,0 l/m 0,6 km/h (0 Bft) W-SW 247 7,4 C 8,1 C 5,1 km/h (1 Bft)
12.05.2012 16:28 10,1 C 81 % 0,0 l/m 1,3 km/h (1 Bft) SO 135 7,0 C 8,0 C 8,2 km/h (2 Bft)
12.05.2012 16:30 10,0 C 82 % 0,0 l/m 2,1 km/h (1 Bft) W-SW 247 7,1 C 7,9 C 8,2 km/h (2 Bft)
12.05.2012 16:32 10,0 C 82 % 0,0 l/m 2,7 km/h (1 Bft) NW 315 7,1 C 7,7 C 3,4 km/h (1 Bft)
12.05.2012 16:34 9,9 C 82 % 0,0 l/m 2,9 km/h (1 Bft) S 180 7,0 C 7,6 C 3,4 km/h (1 Bft)
12.05.2012 16:36 9,8 C 82 % 0,0 l/m 3,1 km/h (1 Bft) O-SO 112 6,9 C 7,5 C 4,5 km/h (1 Bft)
12.05.2012 16:38 9,8 C 82 % 0,0 l/m 3,1 km/h (1 Bft) O-SO 112 6,9 C 7,5 C 6,1 km/h (2 Bft)
12.05.2012 16:40 9,8 C 82 % 0,0 l/m 2,7 km/h (1 Bft) S 180 6,9 C 7,4 C 6,1 km/h (2 Bft)
12.05.2012 16:42 9,7 C 82 % 0,0 l/m 2,9 km/h (1 Bft) SO 135 6,8 C 7,3 C 4,8 km/h (1 Bft)
12.05.2012 16:44 9,6 C 82 % 0,7 l/m 3,1 km/h (1 Bft) S 180 6,7 C 7,3 C 5,5 km/h (1 Bft)
12.05.2012 16:46 9,7 C 82 % 0,0 l/m 3,5 km/h (1 Bft) SO 135 6,8 C 7,2 C 5,5 km/h (1 Bft)
12.05.2012 16:48 9,6 C 82 % 0,0 l/m 4,2 km/h (1 Bft) S 180 6,7 C 6,9 C 5,8 km/h (2 Bft)
12.05.2012 16:50 9,5 C 80 % 0,0 l/m 4,2 km/h (1 Bft) S-SO 157 6,2 C 6,7 C 5,8 km/h (2 Bft)
12.05.2012 16:52 9,3 C 80 % 0,0 l/m 3,9 km/h (1 Bft) S-SO 157 6,0 C 6,6 C 5,8 km/h (2 Bft)
12.05.2012 16:54 9,2 C 80 % 0,0 l/m 3,5 km/h (1 Bft) O-SO 112 5,9 C 6,5 C 2,1 km/h (1 Bft)
12.05.2012 16:56 9,2 C 81 % 0,0 l/m 3,2 km/h (1 Bft) O 90 6,1 C 6,6 C 2,4 km/h (1 Bft)
12.05.2012 16:58 9,2 C 81 % 0,0 l/m 2,4 km/h (1 Bft) S 180 6,1 C 6,6 C 2,6 km/h (1 Bft)
12.05.2012 17:00 9,2 C 81 % 0,0 l/m 1,9 km/h (1 Bft) SO 135 6,1 C 6,6 C 5,1 km/h (1 Bft)
12.05.2012 17:02 9,2 C 81 % 0,0 l/m 2,1 km/h (1 Bft) O 90 6,1 C 6,5 C 5,1 km/h (1 Bft)
12.05.2012 17:04 9,2 C 81 % 0,0 l/m 2,1 km/h (1 Bft) S-SO 157 6,1 C 6,5 C 5,1 km/h (1 Bft)
12.05.2012 17:06 9,2 C 81 % 0,0 l/m 1,9 km/h (1 Bft) N-NO 22 6,1 C 6,5 C 2,3 km/h (1 Bft)
12.05.2012 17:08 9,1 C 81 % 0,0 l/m 1,9 km/h (1 Bft) O-SO 112 6,0 C 6,5 C 2,6 km/h (1 Bft)
12.05.2012 17:10 9,1 C 81 % 0,0 l/m 1,9 km/h (1 Bft) SO 135 6,0 C 6,5 C 2,6 km/h (1 Bft)
12.05.2012 17:12 9,3 C 81 % 0,7 l/m 1,3 km/h (1 Bft) O-SO 112 6,2 C 6,6 C 2,4 km/h (1 Bft)
12.05.2012 17:14 9,2 C 81 % 0,0 l/m 0,6 km/h (0 Bft) O 90 6,1 C 6,6 C 0,0 km/h (0 Bft)
12.05.2012 17:16 9,1 C 81 % 0,0 l/m 0,5 km/h (0 Bft) O-NO 67 6,0 C 6,6 C 0,0 km/h (0 Bft)
12.05.2012 17:18 9,1 C 82 % 0,0 l/m 0,5 km/h (0 Bft) NO 45 6,2 C 6,6 C 0,0 km/h (0 Bft)
12.05.2012 17:20 9,0 C 82 % 0,0 l/m 0,2 km/h (0 Bft) NO 45 6,1 C 6,7 C 1,6 km/h (1 Bft)
12.05.2012 17:22 9,1 C 82 % 0,0 l/m 0,3 km/h (0 Bft) SO 135 6,2 C 6,7 C 1,8 km/h (1 Bft)
12.05.2012 17:24 9,1 C 82 % 0,0 l/m 0,6 km/h (0 Bft) O 90 6,2 C 6,7 C 2,4 km/h (1 Bft)
12.05.2012 17:26 9,1 C 82 % 0,0 l/m 1,1 km/h (1 Bft) O-SO 112 6,2 C 6,7 C 4,0 km/h (1 Bft)
12.05.2012 17:28 9,2 C 82 % 0,0 l/m 1,4 km/h (1 Bft) NO 45 6,3 C 6,7 C 4,0 km/h (1 Bft)
12.05.2012 17:30 9,0 C 82 % 0,0 l/m 1,6 km/h (1 Bft) O-NO 67 6,1 C 6,7 C 3,4 km/h (1 Bft)
12.05.2012 17:32 8,9 C 82 % 0,0 l/m 1,3 km/h (1 Bft) O 90 6,0 C 6,7 C 1,8 km/h (1 Bft)
12.05.2012 17:34 8,9 C 82 % 0,0 l/m 1,3 km/h (1 Bft) N-NO 22 6,0 C 6,7 C 0,0 km/h (0 Bft)
12.05.2012 17:36 8,9 C 83 % 0,0 l/m 1,0 km/h (0 Bft) O 90 6,2 C 6,7 C 2,1 km/h (1 Bft)
12.05.2012 17:38 8,8 C 82 % 0,0 l/m 0,8 km/h (0 Bft) NO 45 5,9 C 6,7 C 4,0 km/h (1 Bft)
12.05.2012 17:40 8,9 C 82 % 0,0 l/m 0,8 km/h (0 Bft) NO 45 6,0 C 6,7 C 4,0 km/h (1 Bft)
12.05.2012 17:42 8,9 C 83 % 0,7 l/m 0,6 km/h (0 Bft) N 360 6,2 C 6,7 C 1,8 km/h (1 Bft)
12.05.2012 17:44 8,8 C 83 % 0,0 l/m 0,8 km/h (0 Bft) N-NO 22 6,1 C 6,7 C 0,0 km/h (0 Bft)
12.05.2012 17:46 8,8 C 82 % 0,0 l/m 1,0 km/h (0 Bft) N 360 5,9 C 6,6 C 0,0 km/h (0 Bft)
12.05.2012 17:48 8,6 C 82 % 0,0 l/m 1,0 km/h (0 Bft) NO 45 5,7 C 6,6 C 0,0 km/h (0 Bft)
12.05.2012 17:50 8,7 C 83 % 0,0 l/m 0,6 km/h (0 Bft) N-NO 22 6,0 C 6,6 C 1,6 km/h (1 Bft)
12.05.2012 17:52 8,6 C 83 % 0,0 l/m 0,6 km/h (0 Bft) N 360 5,9 C 6,6 C 1,6 km/h (1 Bft)
12.05.2012 17:54 8,7 C 83 % 0,0 l/m 0,6 km/h (0 Bft) NO 45 6,0 C 6,6 C 0,0 km/h (0 Bft)
12.05.2012 17:56 8,7 C 83 % 0,0 l/m 0,5 km/h (0 Bft) N-NO 22 6,0 C 6,6 C 0,0 km/h (0 Bft)
12.05.2012 17:58 8,7 C 84 % 0,0 l/m 0,5 km/h (0 Bft) NO 45 6,2 C 6,6 C 0,0 km/h (0 Bft)
12.05.2012 18:00 8,7 C 84 % 0,0 l/m 0,3 km/h (0 Bft) W-NW 292 6,2 C 6,6 C 0,0 km/h (0 Bft)
12.05.2012 18:02 8,7 C 84 % 0,0 l/m 0,5 km/h (0 Bft) N-NO 22 6,2 C 6,6 C 2,1 km/h (1 Bft)
12.05.2012 18:04 8,6 C 84 % 0,0 l/m 0,5 km/h (0 Bft) N 360 6,1 C 6,6 C 2,1 km/h (1 Bft)
12.05.2012 18:06 8,6 C 84 % 0,0 l/m 0,5 km/h (0 Bft) W 270 6,1 C 6,6 C 1,6 km/h (1 Bft)
12.05.2012 18:08 8,5 C 84 % 0,0 l/m 0,5 km/h (0 Bft) N-NO 22 6,0 C 6,6 C 0,0 km/h (0 Bft)
12.05.2012 18:10 8,6 C 84 % 0,0 l/m 0,5 km/h (0 Bft) N-NO 22 6,1 C 6,6 C 0,0 km/h (0 Bft)
12.05.2012 18:12 8,5 C 84 % 0,7 l/m 0,6 km/h (0 Bft) O-NO 67 6,0 C 6,6 C 2,3 km/h (1 Bft)
12.05.2012 18:14 8,4 C 84 % 0,0 l/m 0,5 km/h (0 Bft) N-NO 22 5,9 C 6,6 C 2,3 km/h (1 Bft)
12.05.2012 18:16 8,4 C 84 % 0,0 l/m 0,5 km/h (0 Bft) N-NO 22 5,9 C 6,6 C 0,0 km/h (0 Bft)
12.05.2012 18:18 8,5 C 84 % 0,0 l/m 0,5 km/h (0 Bft) N 360 6,0 C 6,6 C 0,0 km/h (0 Bft)
12.05.2012 18:20 8,4 C 84 % 0,0 l/m 0,8 km/h (0 Bft) NO 45 5,9 C 6,6 C 2,6 km/h (1 Bft)
12.05.2012 18:22 8,4 C 84 % 0,0 l/m 1,1 km/h (1 Bft) O-NO 67 5,9 C 6,6 C 3,1 km/h (1 Bft)
12.05.2012 18:24 8,4 C 84 % 0,0 l/m 1,3 km/h (1 Bft) O 90 5,9 C 6,6 C 3,1 km/h (1 Bft)
12.05.2012 18:26 8,4 C 84 % 0,0 l/m 1,3 km/h (1 Bft) W-SW 247 5,9 C 6,6 C 2,3 km/h (1 Bft)
12.05.2012 18:28 8,5 C 84 % 0,0 l/m 1,6 km/h (1 Bft) SO 135 6,0 C 6,6 C 3,5 km/h (1 Bft)
12.05.2012 18:30 8,6 C 84 % 0,0 l/m 1,4 km/h (1 Bft) N 360 6,1 C 6,6 C 3,5 km/h (1 Bft)
12.05.2012 18:32 8,7 C 84 % 0,0 l/m 1,1 km/h (1 Bft) N 360 6,2 C 6,7 C 2,3 km/h (1 Bft)
12.05.2012 18:34 8,7 C 84 % 0,0 l/m 1,0 km/h (0 Bft) NO 45 6,2 C 6,6 C 2,3 km/h (1 Bft)
12.05.2012 18:36 8,7 C 84 % 0,0 l/m 1,0 km/h (0 Bft) N-NO 22 6,2 C 6,6 C 2,1 km/h (1 Bft)
12.05.2012 18:38 8,6 C 84 % 0,0 l/m 0,6 km/h (0 Bft) NO 45 6,1 C 6,6 C 1,8 km/h (1 Bft)
12.05.2012 18:40 8,7 C 84 % 0,0 l/m 0,5 km/h (0 Bft) N-NO 22 6,2 C 6,6 C 1,8 km/h (1 Bft)
12.05.2012 18:42 8,7 C 84 % 0,0 l/m 0,5 km/h (0 Bft) N-NO 22 6,2 C 6,6 C 0,0 km/h (0 Bft)
12.05.2012 18:44 8,7 C 84 % 0,0 l/m 0,2 km/h (0 Bft) N-NO 22 6,2 C 6,6 C 0,0 km/h (0 Bft)
12.05.2012 18:46 8,7 C 84 % 0,0 l/m 0,2 km/h (0 Bft) N 360 6,2 C 6,6 C 0,0 km/h (0 Bft)
12.05.2012 18:48 8,6 C 84 % 0,0 l/m 0,0 km/h (0 Bft) N-NW 337 6,1 C 6,6 C 0,0 km/h (0 Bft)
12.05.2012 18:50 8,7 C 84 % 0,0 l/m 0,0 km/h (0 Bft) NW 315 6,2 C 6,6 C 0,0 km/h (0 Bft)
12.05.2012 18:52 8,7 C 84 % 0,0 l/m 0,0 km/h (0 Bft) W-NW 292 6,2 C 6,6 C 0,0 km/h (0 Bft)
12.05.2012 18:54 8,7 C 83 % 0,0 l/m 0,2 km/h (0 Bft) N-NW 337 6,0 C 6,6 C 1,8 km/h (1 Bft)
12.05.2012 18:56 8,7 C 83 % 0,0 l/m 0,2 km/h (0 Bft) W-NW 292 6,0 C 6,6 C 1,8 km/h (1 Bft)
12.05.2012 18:58 8,5 C 83 % 0,0 l/m 0,2 km/h (0 Bft) N-NW 337 5,8 C 6,6 C 0,0 km/h (0 Bft)
12.05.2012 19:00 8,5 C 84 % 0,0 l/m 0,2 km/h (0 Bft) NO 45 6,0 C 6,5 C 0,0 km/h (0 Bft)
12.05.2012 19:02 8,6 C 84 % 0,0 l/m 0,2 km/h (0 Bft) N-NO 22 6,1 C 6,5 C 0,0 km/h (0 Bft)
12.05.2012 19:04 8,7 C 84 % 0,0 l/m 0,2 km/h (0 Bft) N-NO 22 6,2 C 6,5 C 0,0 km/h (0 Bft)
12.05.2012 19:06 8,6 C 84 % 0,0 l/m 0,0 km/h (0 Bft) N-NW 337 6,1 C 6,5 C 1,6 km/h (1 Bft)
12.05.2012 19:08 8,4 C 84 % 0,0 l/m 0,0 km/h (0 Bft) N-NO 22 5,9 C 6,5 C 1,6 km/h (1 Bft)
12.05.2012 19:10 8,5 C 84 % 0,0 l/m 0,0 km/h (0 Bft) O-SO 112 6,0 C 6,5 C 0,0 km/h (0 Bft)
12.05.2012 19:12 8,5 C 84 % 0,0 l/m 0,0 km/h (0 Bft) N 360 6,0 C 6,5 C 0,0 km/h (0 Bft)
12.05.2012 19:14 8,5 C 84 % 0,0 l/m 0,2 km/h (0 Bft) N-NW 337 6,0 C 6,5 C 0,0 km/h (0 Bft)
12.05.2012 19:16 8,5 C 84 % 0,0 l/m 0,3 km/h (0 Bft) NW 315 6,0 C 6,5 C 3,4 km/h (1 Bft)
12.05.2012 19:18 8,4 C 83 % 0,0 l/m 0,8 km/h (0 Bft) W 270 5,7 C 6,5 C 3,4 km/h (1 Bft)
12.05.2012 19:20 8,4 C 83 % 0,0 l/m 1,0 km/h (0 Bft) N 360 5,7 C 6,4 C 3,2 km/h (1 Bft)
12.05.2012 19:22 8,4 C 84 % 0,0 l/m 1,1 km/h (1 Bft) S 180 5,9 C 6,3 C 0,0 km/h (0 Bft)
12.05.2012 19:24 8,4 C 84 % 0,0 l/m 1,0 km/h (0 Bft) W 270 5,9 C 6,3 C 0,0 km/h (0 Bft)
12.05.2012 19:26 8,4 C 84 % 0,0 l/m 1,0 km/h (0 Bft) O-SO 112 5,9 C 6,3 C 0,0 km/h (0 Bft)
12.05.2012 19:28 8,4 C 83 % 0,0 l/m 0,5 km/h (0 Bft) O 90 5,7 C 6,3 C 0,0 km/h (0 Bft)
12.05.2012 19:30 8,5 C 84 % 0,0 l/m 0,3 km/h (0 Bft) N-NO 22 6,0 C 6,3 C 0,0 km/h (0 Bft)
12.05.2012 19:32 8,3 C 84 % 0,0 l/m 0,3 km/h (0 Bft) N-NO 22 5,8 C 6,3 C 1,6 km/h (1 Bft)
12.05.2012 19:34 8,3 C 84 % 0,0 l/m 0,6 km/h (0 Bft) NO 45 5,8 C 6,3 C 2,6 km/h (1 Bft)
12.05.2012 19:36 8,1 C 83 % 0,7 l/m 0,8 km/h (0 Bft) NO 45 5,4 C 6,2 C 2,6 km/h (1 Bft)
12.05.2012 19:38 8,1 C 83 % 0,0 l/m 1,3 km/h (1 Bft) NO 45 5,4 C 6,1 C 2,4 km/h (1 Bft)
12.05.2012 19:40 8,0 C 83 % 0,0 l/m 1,3 km/h (1 Bft) NO 45 5,3 C 6,0 C 2,4 km/h (1 Bft)
12.05.2012 19:42 8,0 C 83 % 0,0 l/m 1,3 km/h (1 Bft) NO 45 5,3 C 6,0 C 1,9 km/h (1 Bft)
12.05.2012 19:44 7,9 C 84 % 0,0 l/m 1,1 km/h (1 Bft) N-NO 22 5,4 C 5,9 C 0,0 km/h (0 Bft)
12.05.2012 19:46 7,7 C 84 % 0,0 l/m 0,8 km/h (0 Bft) NO 45 5,2 C 5,9 C 0,0 km/h (0 Bft)
12.05.2012 19:48 7,6 C 84 % 0,0 l/m 0,5 km/h (0 Bft) NO 45 5,1 C 5,8 C 0,0 km/h (0 Bft)
12.05.2012 19:50 7,7 C 85 % 0,0 l/m 0,2 km/h (0 Bft) N-NO 22 5,3 C 5,8 C 0,0 km/h (0 Bft)
12.05.2012 19:52 7,6 C 85 % 0,0 l/m 0,2 km/h (0 Bft) N-NO 22 5,2 C 5,8 C 0,0 km/h (0 Bft)
12.05.2012 19:54 7,6 C 85 % 0,0 l/m 0,0 km/h (0 Bft) NO 45 5,2 C 5,8 C 0,0 km/h (0 Bft)
12.05.2012 19:56 7,7 C 85 % 0,0 l/m 0,0 km/h (0 Bft) NO 45 5,3 C 5,8 C 0,0 km/h (0 Bft)
12.05.2012 19:58 7,6 C 85 % 0,0 l/m 0,0 km/h (0 Bft) N-NO 22 5,2 C 5,8 C 0,0 km/h (0 Bft)
12.05.2012 20:00 7,6 C 85 % 0,0 l/m 0,0 km/h (0 Bft) N 360 5,2 C 5,8 C 0,0 km/h (0 Bft)
12.05.2012 20:02 7,6 C 85 % 0,0 l/m 0,0 km/h (0 Bft) O-SO 112 5,2 C 5,8 C 0,0 km/h (0 Bft)
12.05.2012 20:04 7,7 C 85 % 0,0 l/m 0,0 km/h (0 Bft) NO 45 5,3 C 5,8 C 0,0 km/h (0 Bft)
12.05.2012 20:06 7,7 C 85 % 0,0 l/m 0,0 km/h (0 Bft) N-NO 22 5,3 C 5,8 C 0,0 km/h (0 Bft)
12.05.2012 20:08 7,7 C 85 % 0,0 l/m 0,0 km/h (0 Bft) W 270 5,3 C 5,8 C 0,0 km/h (0 Bft)
12.05.2012 20:10 7,7 C 85 % 0,0 l/m 0,0 km/h (0 Bft) N-NW 337 5,3 C 5,8 C 0,0 km/h (0 Bft)
12.05.2012 20:12 7,9 C 85 % 0,0 l/m 0,0 km/h (0 Bft) N 360 5,5 C 5,8 C 0,0 km/h (0 Bft)
12.05.2012 20:14 7,8 C 85 % 0,0 l/m 0,0 km/h (0 Bft) O-NO 67 5,4 C 5,8 C 0,0 km/h (0 Bft)
12.05.2012 20:16 7,9 C 85 % 0,0 l/m 0,0 km/h (0 Bft) N 360 5,5 C 5,8 C 0,0 km/h (0 Bft)
12.05.2012 20:18 7,9 C 85 % 0,0 l/m 0,0 km/h (0 Bft) W 270 5,5 C 5,8 C 0,0 km/h (0 Bft)
12.05.2012 20:20 7,9 C 85 % 0,0 l/m 0,0 km/h (0 Bft) SO 135 5,5 C 5,8 C 0,0 km/h (0 Bft)
12.05.2012 20:22 7,9 C 85 % 0,0 l/m 0,0 km/h (0 Bft) NO 45 5,5 C 5,8 C 0,0 km/h (0 Bft)
12.05.2012 20:24 7,9 C 85 % 0,0 l/m 0,0 km/h (0 Bft) SO 135 5,5 C 5,8 C 0,0 km/h (0 Bft)
12.05.2012 20:26 7,9 C 85 % 0,0 l/m 0,0 km/h (0 Bft) SO 135 5,5 C 5,8 C 0,0 km/h (0 Bft)
12.05.2012 20:28 7,9 C 85 % 0,0 l/m 0,2 km/h (0 Bft) O 90 5,5 C 5,7 C 0,0 km/h (0 Bft)
12.05.2012 20:30 7,9 C 85 % 0,0 l/m 0,2 km/h (0 Bft) O-NO 67 5,5 C 5,7 C 2,3 km/h (1 Bft)
12.05.2012 20:32 7,9 C 85 % 0,0 l/m 0,5 km/h (0 Bft) O 90 5,5 C 5,7 C 3,1 km/h (1 Bft)
12.05.2012 20:34 7,9 C 84 % 0,0 l/m 0,5 km/h (0 Bft) O-SO 112 5,4 C 5,7 C 3,1 km/h (1 Bft)
12.05.2012 20:36 7,9 C 84 % 0,0 l/m 0,8 km/h (0 Bft) W-NW 292 5,4 C 5,7 C 1,6 km/h (1 Bft)
12.05.2012 20:38 7,9 C 84 % 0,0 l/m 0,8 km/h (0 Bft) SO 135 5,4 C 5,7 C 1,8 km/h (1 Bft)
12.05.2012 20:40 7,8 C 84 % 0,0 l/m 0,8 km/h (0 Bft) NO 45 5,3 C 5,6 C 1,8 km/h (1 Bft)
12.05.2012 20:42 7,8 C 84 % 0,0 l/m 0,6 km/h (0 Bft) N-NW 337 5,3 C 5,6 C 0,0 km/h (0 Bft)
12.05.2012 20:44 7,9 C 84 % 0,0 l/m 0,5 km/h (0 Bft) NO 45 5,4 C 5,6 C 0,0 km/h (0 Bft)
12.05.2012 20:46 7,9 C 84 % 0,0 l/m 0,3 km/h (0 Bft) NO 45 5,4 C 5,5 C 0,0 km/h (0 Bft)
12.05.2012 20:48 7,9 C 84 % 0,0 l/m 0,3 km/h (0 Bft) O-NO 67 5,4 C 5,5 C 0,0 km/h (0 Bft)
12.05.2012 20:50 7,8 C 84 % 0,0 l/m 0,2 km/h (0 Bft) N-NO 22 5,3 C 5,5 C 0,0 km/h (0 Bft)
12.05.2012 20:52 7,7 C 84 % 0,0 l/m 0,2 km/h (0 Bft) N 360 5,2 C 5,5 C 0,0 km/h (0 Bft)
12.05.2012 20:54 7,7 C 84 % 0,0 l/m 0,0 km/h (0 Bft) NO 45 5,2 C 5,4 C 0,0 km/h (0 Bft)
12.05.2012 20:56 7,7 C 84 % 0,0 l/m 0,0 km/h (0 Bft) N-NW 337 5,2 C 5,4 C 0,0 km/h (0 Bft)
12.05.2012 20:58 7,6 C 84 % 0,0 l/m 0,0 km/h (0 Bft) NO 45 5,1 C 5,4 C 0,0 km/h (0 Bft)
12.05.2012 21:00 7,6 C 84 % 0,0 l/m 0,0 km/h (0 Bft) O 90 5,1 C 5,4 C 0,0 km/h (0 Bft)
12.05.2012 21:02 7,6 C 84 % 0,0 l/m 0,0 km/h (0 Bft) SO 135 5,1 C 5,4 C 0,0 km/h (0 Bft)
12.05.2012 21:04 7,7 C 84 % 0,0 l/m 0,0 km/h (0 Bft) N-NO 22 5,2 C 5,4 C 0,0 km/h (0 Bft)
12.05.2012 21:06 7,7 C 84 % 0,0 l/m 0,0 km/h (0 Bft) SO 135 5,2 C 5,4 C 0,0 km/h (0 Bft)
12.05.2012 21:08 7,6 C 84 % 0,0 l/m 0,2 km/h (0 Bft) N 360 5,1 C 5,4 C 0,0 km/h (0 Bft)
12.05.2012 21:10 7,5 C 84 % 0,0 l/m 0,2 km/h (0 Bft) SO 135 5,0 C 5,3 C 0,0 km/h (0 Bft)
12.05.2012 21:12 7,5 C 84 % 0,0 l/m 0,2 km/h (0 Bft) N-NO 22 5,0 C 5,3 C 0,0 km/h (0 Bft)
12.05.2012 21:14 7,5 C 84 % 0,0 l/m 0,2 km/h (0 Bft) O 90 5,0 C 5,3 C 0,0 km/h (0 Bft)
12.05.2012 21:16 7,5 C 84 % 0,0 l/m 0,2 km/h (0 Bft) N 360 5,0 C 5,3 C 0,0 km/h (0 Bft)
12.05.2012 21:18 7,4 C 84 % 0,0 l/m 0,0 km/h (0 Bft) O 90 4,9 C 5,3 C 0,0 km/h (0 Bft)
12.05.2012 21:20 7,4 C 84 % 0,0 l/m 0,0 km/h (0 Bft) N-NO 22 4,9 C 5,3 C 0,0 km/h (0 Bft)
12.05.2012 21:22 7,5 C 84 % 0,0 l/m 0,0 km/h (0 Bft) N 360 5,0 C 5,3 C 0,0 km/h (0 Bft)
12.05.2012 21:24 7,4 C 84 % 0,0 l/m 0,2 km/h (0 Bft) N 360 4,9 C 5,3 C 1,8 km/h (1 Bft)
12.05.2012 21:26 7,3 C 84 % 0,0 l/m 0,2 km/h (0 Bft) W-SW 247 4,8 C 5,3 C 1,8 km/h (1 Bft)
12.05.2012 21:28 7,3 C 84 % 0,0 l/m 0,2 km/h (0 Bft) N-NO 22 4,8 C 5,2 C 2,1 km/h (1 Bft)
12.05.2012 21:30 7,3 C 84 % 0,0 l/m 0,2 km/h (0 Bft) O-NO 67 4,8 C 5,2 C 2,1 km/h (1 Bft)
12.05.2012 21:32 7,3 C 84 % 0,0 l/m 0,2 km/h (0 Bft) O-SO 112 4,8 C 5,2 C 0,0 km/h (0 Bft)
12.05.2012 21:34 7,3 C 84 % 0,0 l/m 0,2 km/h (0 Bft) SO 135 4,8 C 5,2 C 0,0 km/h (0 Bft)
12.05.2012 21:36 7,3 C 84 % 0,0 l/m 0,2 km/h (0 Bft) N 360 4,8 C 5,2 C 0,0 km/h (0 Bft)
12.05.2012 21:38 7,2 C 84 % 0,0 l/m 0,2 km/h (0 Bft) N 360 4,7 C 5,2 C 0,0 km/h (0 Bft)
12.05.2012 21:40 7,2 C 84 % 0,0 l/m 0,0 km/h (0 Bft) N-NW 337 4,7 C 5,2 C 0,0 km/h (0 Bft)
12.05.2012 21:42 7,2 C 84 % 0,0 l/m 0,0 km/h (0 Bft) N 360 4,7 C 5,2 C 0,0 km/h (0 Bft)
12.05.2012 21:44 7,2 C 84 % 0,0 l/m 0,0 km/h (0 Bft) NO 45 4,7 C 5,2 C 0,0 km/h (0 Bft)
12.05.2012 21:46 7,3 C 84 % 0,0 l/m 0,0 km/h (0 Bft) SO 135 4,8 C 5,2 C 0,0 km/h (0 Bft)
12.05.2012 21:48 7,3 C 84 % 0,0 l/m 0,0 km/h (0 Bft) SO 135 4,8 C 5,2 C 0,0 km/h (0 Bft)
12.05.2012 21:50 7,2 C 84 % 0,0 l/m 0,0 km/h (0 Bft) N-NO 22 4,7 C 5,2 C 0,0 km/h (0 Bft)
12.05.2012 21:52 7,2 C 84 % 0,0 l/m 0,0 km/h (0 Bft) W-NW 292 4,7 C 5,2 C 0,0 km/h (0 Bft)
12.05.2012 21:54 7,2 C 84 % 0,0 l/m 0,0 km/h (0 Bft) N 360 4,7 C 5,2 C 0,0 km/h (0 Bft)
12.05.2012 21:56 7,2 C 84 % 0,0 l/m 0,0 km/h (0 Bft) O-NO 67 4,7 C 5,2 C 0,0 km/h (0 Bft)
12.05.2012 21:58 7,3 C 84 % 0,0 l/m 0,0 km/h (0 Bft) W 270 4,8 C 5,2 C 0,0 km/h (0 Bft)
12.05.2012 22:00 7,2 C 84 % 0,0 l/m 0,0 km/h (0 Bft) S-SW 202 4,7 C 5,2 C 0,0 km/h (0 Bft)
12.05.2012 22:02 7,2 C 85 % 0,0 l/m 0,0 km/h (0 Bft) S-SW 202 4,9 C 5,2 C 0,0 km/h (0 Bft)
12.05.2012 22:04 7,2 C 85 % 0,0 l/m 0,0 km/h (0 Bft) W 270 4,9 C 5,2 C 0,0 km/h (0 Bft)
12.05.2012 22:06 7,3 C 84 % 0,0 l/m 0,0 km/h (0 Bft) SW 225 4,8 C 5,2 C 0,0 km/h (0 Bft)
12.05.2012 22:08 7,3 C 85 % 0,0 l/m 0,0 km/h (0 Bft) O 90 4,9 C 5,2 C 0,0 km/h (0 Bft)
12.05.2012 22:10 7,3 C 84 % 0,0 l/m 0,0 km/h (0 Bft) W-SW 247 4,8 C 5,2 C 0,0 km/h (0 Bft)
12.05.2012 22:12 7,2 C 84 % 0,0 l/m 0,0 km/h (0 Bft) NO 45 4,7 C 5,3 C 0,0 km/h (0 Bft)
12.05.2012 22:14 7,2 C 84 % 0,0 l/m 0,0 km/h (0 Bft) N 360 4,7 C 5,3 C 0,0 km/h (0 Bft)
12.05.2012 22:16 7,3 C 85 % 0,0 l/m 0,0 km/h (0 Bft) S 180 4,9 C 5,3 C 0,0 km/h (0 Bft)
12.05.2012 22:18 7,2 C 84 % 0,0 l/m 0,0 km/h (0 Bft) N 360 4,7 C 5,2 C 0,0 km/h (0 Bft)
12.05.2012 22:20 7,2 C 84 % 0,0 l/m 0,0 km/h (0 Bft) S 180 4,7 C 5,2 C 0,0 km/h (0 Bft)
12.05.2012 22:22 7,2 C 84 % 0,0 l/m 0,0 km/h (0 Bft) SW 225 4,7 C 5,2 C 0,0 km/h (0 Bft)
12.05.2012 22:24 7,3 C 84 % 0,0 l/m 0,0 km/h (0 Bft) W-SW 247 4,8 C 5,2 C 0,0 km/h (0 Bft)
12.05.2012 22:26 7,3 C 84 % 0,0 l/m 0,0 km/h (0 Bft) SW 225 4,8 C 5,2 C 0,0 km/h (0 Bft)
12.05.2012 22:28 7,3 C 84 % 0,0 l/m 0,0 km/h (0 Bft) N 360 4,8 C 5,2 C 0,0 km/h (0 Bft)
12.05.2012 22:30 7,2 C 84 % 0,0 l/m 0,0 km/h (0 Bft) N-NO 22 4,7 C 5,2 C 0,0 km/h (0 Bft)
12.05.2012 22:32 7,1 C 85 % 0,0 l/m 0,0 km/h (0 Bft) NO 45 4,8 C 5,2 C 0,0 km/h (0 Bft)
12.05.2012 22:34 7,1 C 84 % 0,0 l/m 0,0 km/h (0 Bft) NW 315 4,6 C 5,2 C 0,0 km/h (0 Bft)
12.05.2012 22:36 7,2 C 84 % 0,0 l/m 0,2 km/h (0 Bft) N 360 4,7 C 5,1 C 2,1 km/h (1 Bft)
12.05.2012 22:38 7,1 C 84 % 0,0 l/m 0,2 km/h (0 Bft) N-NO 22 4,6 C 5,1 C 2,1 km/h (1 Bft)
12.05.2012 22:40 7,1 C 84 % 0,0 l/m 0,3 km/h (0 Bft) O-SO 112 4,6 C 5,1 C 1,9 km/h (1 Bft)
12.05.2012 22:42 7,1 C 84 % 0,0 l/m 0,3 km/h (0 Bft) O 90 4,6 C 5,1 C 0,0 km/h (0 Bft)
12.05.2012 22:44 7,1 C 84 % 0,0 l/m 0,3 km/h (0 Bft) O-SO 112 4,6 C 5,1 C 0,0 km/h (0 Bft)
12.05.2012 22:46 7,1 C 84 % 0,0 l/m 0,3 km/h (0 Bft) S-SW 202 4,6 C 5,1 C 0,0 km/h (0 Bft)
12.05.2012 22:48 7,1 C 84 % 0,0 l/m 0,3 km/h (0 Bft) O-SO 112 4,6 C 5,1 C 0,0 km/h (0 Bft)
12.05.2012 22:50 7,1 C 84 % 0,0 l/m 0,0 km/h (0 Bft) O-SO 112 4,6 C 5,1 C 0,0 km/h (0 Bft)
12.05.2012 22:52 7,1 C 84 % 0,0 l/m 0,0 km/h (0 Bft) O 90 4,6 C 5,1 C 0,0 km/h (0 Bft)
12.05.2012 22:54 7,0 C 84 % 0,0 l/m 0,2 km/h (0 Bft) N 360 4,5 C 5,1 C 0,0 km/h (0 Bft)
12.05.2012 22:56 7,1 C 84 % 0,0 l/m 0,2 km/h (0 Bft) NO 45 4,6 C 5,1 C 0,0 km/h (0 Bft)
12.05.2012 22:58 7,1 C 84 % 0,0 l/m 0,2 km/h (0 Bft) SO 135 4,6 C 5,1 C 0,0 km/h (0 Bft)
12.05.2012 23:00 7,1 C 85 % 0,0 l/m 0,2 km/h (0 Bft) N-NO 22 4,8 C 5,1 C 0,0 km/h (0 Bft)
12.05.2012 23:02 7,0 C 85 % 0,0 l/m 0,3 km/h (0 Bft) N 360 4,7 C 5,1 C 0,0 km/h (0 Bft)
12.05.2012 23:04 7,0 C 85 % 0,0 l/m 0,3 km/h (0 Bft) W-SW 247 4,7 C 5,1 C 0,0 km/h (0 Bft)
12.05.2012 23:06 6,9 C 85 % 0,0 l/m 0,2 km/h (0 Bft) N-NW 337 4,6 C 5,1 C 0,0 km/h (0 Bft)
12.05.2012 23:08 6,9 C 85 % 0,0 l/m 0,2 km/h (0 Bft) O-NO 67 4,6 C 5,1 C 0,0 km/h (0 Bft)
12.05.2012 23:10 6,9 C 85 % 0,0 l/m 0,2 km/h (0 Bft) N 360 4,6 C 5,1 C 0,0 km/h (0 Bft)
12.05.2012 23:12 6,9 C 85 % 0,0 l/m 0,2 km/h (0 Bft) N-NO 22 4,6 C 5,1 C 0,0 km/h (0 Bft)
12.05.2012 23:14 6,8 C 85 % 0,0 l/m 0,2 km/h (0 Bft) S-SW 202 4,5 C 5,1 C 0,0 km/h (0 Bft)
12.05.2012 23:16 6,8 C 85 % 0,0 l/m 0,0 km/h (0 Bft) W-NW 292 4,5 C 5,1 C 0,0 km/h (0 Bft)
12.05.2012 23:18 6,8 C 85 % 0,0 l/m 0,0 km/h (0 Bft) N 360 4,5 C 5,1 C 0,0 km/h (0 Bft)
12.05.2012 23:20 6,9 C 85 % 0,0 l/m 0,0 km/h (0 Bft) NO 45 4,6 C 5,1 C 0,0 km/h (0 Bft)
12.05.2012 23:22 6,9 C 85 % 0,0 l/m 0,0 km/h (0 Bft) N 360 4,6 C 5,1 C 0,0 km/h (0 Bft)
12.05.2012 23:24 6,9 C 85 % 0,0 l/m 0,0 km/h (0 Bft) O-NO 67 4,6 C 5,1 C 0,0 km/h (0 Bft)
12.05.2012 23:26 7,0 C 85 % 0,0 l/m 0,0 km/h (0 Bft) S-SO 157 4,7 C 5,1 C 0,0 km/h (0 Bft)
12.05.2012 23:28 6,9 C 85 % 0,0 l/m 0,0 km/h (0 Bft) W-NW 292 4,6 C 5,1 C 0,0 km/h (0 Bft)
12.05.2012 23:30 6,9 C 85 % 0,0 l/m 0,0 km/h (0 Bft) S-SW 202 4,6 C 5,1 C 0,0 km/h (0 Bft)
12.05.2012 23:32 7,1 C 85 % 0,0 l/m 0,0 km/h (0 Bft) S 180 4,8 C 5,1 C 0,0 km/h (0 Bft)
12.05.2012 23:34 7,0 C 85 % 0,0 l/m 0,0 km/h (0 Bft) W-NW 292 4,7 C 5,1 C 0,0 km/h (0 Bft)
12.05.2012 23:36 6,9 C 85 % 0,0 l/m 0,0 km/h (0 Bft) N-NW 337 4,6 C 5,1 C 0,0 km/h (0 Bft)
12.05.2012 23:38 6,9 C 85 % 0,0 l/m 0,0 km/h (0 Bft) O-SO 112 4,6 C 5,1 C 0,0 km/h (0 Bft)
12.05.2012 23:40 6,9 C 85 % 0,0 l/m 0,0 km/h (0 Bft) W 270 4,6 C 5,1 C 0,0 km/h (0 Bft)
12.05.2012 23:42 6,9 C 85 % 0,0 l/m 0,0 km/h (0 Bft) O 90 4,6 C 5,1 C 0,0 km/h (0 Bft)
12.05.2012 23:44 7,0 C 85 % 0,0 l/m 0,0 km/h (0 Bft) W-NW 292 4,7 C 5,1 C 0,0 km/h (0 Bft)
12.05.2012 23:46 7,0 C 85 % 0,0 l/m 0,0 km/h (0 Bft) W-SW 247 4,7 C 5,1 C 0,0 km/h (0 Bft)
12.05.2012 23:48 7,0 C 85 % 0,0 l/m 0,2 km/h (0 Bft) O-SO 112 4,7 C 5,1 C 0,0 km/h (0 Bft)
12.05.2012 23:50 6,9 C 85 % 0,0 l/m 0,2 km/h (0 Bft) W-SW 247 4,6 C 5,1 C 2,7 km/h (1 Bft)
12.05.2012 23:52 6,9 C 85 % 0,0 l/m 0,2 km/h (0 Bft) SO 135 4,6 C 5,1 C 2,7 km/h (1 Bft)
12.05.2012 23:54 6,9 C 85 % 0,0 l/m 0,5 km/h (0 Bft) O-SO 112 4,6 C 5,1 C 2,3 km/h (1 Bft)
12.05.2012 23:56 6,9 C 85 % 0,0 l/m 0,6 km/h (0 Bft) O-SO 112 4,6 C 5,1 C 2,3 km/h (1 Bft)
12.05.2012 23:58 7,0 C 85 % 0,0 l/m 0,8 km/h (0 Bft) W 270 4,7 C 5,2 C 3,1 km/h (1 Bft)
_ Min-Zeit 23:14 01:27 - 07:36 - - 23:14 22:36 05:27
Minimum _ 6,8 C 61 % - 0,0 km/h (0 Bft) - - 4,5 C 5,1 C 0,0 km/h (0 Bft)
_ Max-Zeit 01:27 07:48 06:00 08:58 - - 08:12 01:27 11:06
Maximum _ 17,4 C 86 % 1,4 l/m 8,7 km/h
S (2 Bft)
- - 13,4 C 17,0 C 17,4 km/h
S-SW (3 Bft)
Durchschnitt _ 12,1 C 80 % #22,7 l/m 1,6 km/h (1 Bft) S - 8,6 C 10,3 C 2,6 km/h (1 Bft)